[[{"header":{"parameterUnit":"m.s-1","parameterCategory":1,"la1":30.2991,"la2":30.254,"lo1":-89.0895,"lo2":-89.0444,"dy":0.0017,"dx":0.0017,"nx":28,"ny":28,"refTime":"2025-08-26T03:00:00:Z","depth":0,"parameterNumber":2,"parameterNumberName":"U-component_of_WINDS"},"data":[0,0,0,0,0,0,0,0,0,0,0,0,0,0,0,0,0,0,0,0,0,0,0,0,0,0,0,0,0,0,0,0,0,0,0,0,0,0,0,0,0,0,0,0,0,0,0,0,0,0,0,0,0,0,0,0,0,0,-1.0594,-1.0593,0,-1.048,-1.0478,-1.0477,-1.0373,-1.0371,-1.037,-1.0369,-1.0252,-1.025,-1.0248,0,0,0,0,0,0,0,0,0,0,0,0,0,-1.0725,-1.0723,-1.0594,-1.0593,-1.0591,-1.048,-1.0478,-1.0477,-1.0373,-1.0371,-1.037,-1.0368,-1.0253,-1.0251,-1.0248,0,0,0,0,0,0,0,0,0,0,0,0,0,-1.0645,-1.0722,-1.0595,-1.0526,-1.0519,-1.048,-1.0478,-1.0476,-1.0373,-1.0371,-1.0369,-1.0368,-1.0254,-1.0251,-1.0248,-1.0268,0,0,-1.0239,-1.0238,0,0,0,0,0,0,0,0,-1.065,-1.064,-1.0538,-1.0531,-1.0523,-1.0438,-1.0481,-1.0406,-1.0374,-1.0429,-1.0369,-1.0367,-1.0316,-1.0308,-1.029,-1.0262,-1.0257,-1.0239,-1.0237,-1.0236,-1.0235,0,0,0,0,0,0,0,-1.0655,-1.0645,-1.0549,-1.0536,-1.0527,-1.0502,-1.0488,-1.0467,-1.0384,-1.0424,-1.0416,-1.0404,-1.0311,-1.0293,-1.0287,-1.0256,-1.0239,-1.0236,-1.0235,-1.0233,-1.0241,-1.0243,0,0,0,0,0,0,-1.0671,-1.065,-1.0552,-1.0545,-1.0583,-1.0501,-1.0486,-1.0467,-1.0384,-1.037,-1.0405,-1.0399,-1.0299,-1.029,-1.0282,-1.0302,-1.0236,-1.0233,-1.0231,-1.0239,-1.0242,-1.0244,0,0,0,0,0,0,-1.0674,-1.0663,-1.0557,-1.0595,-1.058,-1.0501,-1.0481,-1.0466,-1.0448,-1.037,-1.0355,-1.0402,-1.0297,-1.0286,-1.0273,-1.0297,-1.0232,-1.0229,-1.0237,-1.024,-1.0243,-1.0341,0,0,0,0,0,0,-1.0678,-1.0665,-1.0672,-1.0596,-1.0578,-1.0549,-1.0482,-1.0465,-1.0443,-1.0434,-1.0363,-1.035,-1.0295,-1.0278,-1.027,-1.0292,-1.0227,-1.0234,-1.0238,-1.0242,-1.0336,-1.0347,-1.0357,0,0,0,0,0,-1.0683,-1.0703,-1.0672,-1.0661,-1.0585,-1.0551,-1.0541,-1.0477,-1.0446,-1.0452,-1.0402,-1.0352,-1.0295,-1.0277,-1.0268,-1.0289,-1.0233,-1.0237,-1.0241,-1.0331,-1.0345,-1.0357,0,0,0,0,0,0,-1.0783,-1.0692,-1.0657,-1.0653,-1.0611,-1.0533,-1.0539,-1.0494,-1.046,-1.0453,-1.0375,-1.036,-1.0356,-1.032,-1.0302,-1.0305,-1.0257,-1.026,-1.0329,-1.0341,-1.0352,-1.0362,-1.0225,0,0,0,0,0,-1.0805,-1.0785,-1.0706,-1.0711,-1.0691,-1.0619,-1.0602,-1.0557,-1.051,-1.0492,-1.0441,-1.0397,-1.037,-1.0353,-1.0323,-1.033,-1.0314,-1.0339,-1.035,-1.036,-1.0363,-1.0367,-1.0378,-1.0258,-1.0258,-1.0258,0,0,-1.0849,-1.0797,-1.0789,-1.0729,-1.0691,-1.0673,-1.0605,-1.0588,-1.0574,-1.0489,-1.0474,-1.0435,-1.0382,-1.0379,-1.0375,-1.0349,-1.0393,-1.0365,-1.0373,-1.0372,-1.0372,-1.0384,-1.0394,-1.0261,-1.026,-1.026,0,0,-1.0921,-1.0879,-1.0879,-1.0842,-1.0785,-1.0738,-1.0738,-1.0668,-1.0639,-1.0622,-1.0559,-1.0541,-1.0495,-1.046,-1.0437,-1.0498,-1.0451,-1.049,-1.0547,-1.0551,-1.0561,-1.0569,-1.0593,-1.0602,-1.0493,-1.0494,-1.0494,0,-1.0984,-1.0953,-1.0884,-1.0872,-1.0849,-1.0771,-1.0771,-1.0739,-1.0676,-1.0662,-1.0634,-1.0575,-1.0533,-1.0523,-1.0538,-1.0521,-1.052,-1.0498,-1.0565,-1.0572,-1.0579,-1.0601,-1.061,-1.0499,-1.0498,-1.0498,-1.0497,0,-1.1034,-1.1014,-1.1021,-1.0963,-1.094,-1.0934,-1.0865,-1.085,-1.0808,-1.0763,-1.0749,-1.0696,-1.0656,-1.0649,-1.0607,-1.0633,-1.0619,-1.0579,-1.053,-1.0597,-1.0616,-1.0624,-1.0507,-1.0505,-1.0503,-1.0502,0,0,-1.1166,-1.107,-1.1074,-1.1048,-1.098,-1.0964,-1.0955,-1.0915,-1.0905,-1.0864,-1.0857,-1.082,-1.0783,-1.0756,-1.0709,-1.0712,-1.0767,-1.0672,-1.0669,-1.0693,-1.0796,-1.0829,-1.084,-1.0735,-1.0737,-1.0738,-1.0802,0,-1.1228,-1.1208,-1.1147,-1.1146,-1.1128,-1.1054,-1.1047,-1.1005,-1.0964,-1.0943,-1.0897,-1.0874,-1.0825,-1.0809,-1.0809,-1.0761,-1.0787,-1.0755,-1.0729,-1.0729,-1.0747,-1.0849,-1.0883,-1.0946,-1.0809,-1.081,-1.0811,0,-1.1298,-1.1264,-1.1261,-1.1196,-1.1186,-1.1181,-1.1141,-1.1121,-1.1073,-1.1043,-1.1014,-1.0962,-1.095,-1.0904,-1.0888,-1.0867,-1.0853,-1.0828,-1.0829,-1.0826,-1.0776,-1.0851,-1.0964,-1.0975,-1.0822,-1.0821,-1.082,0,-1.1398,-1.135,-1.1343,-1.1322,-1.1245,-1.1244,-1.1212,-1.1161,-1.1142,-1.1107,-1.1095,-1.1059,-1.104,-1.1014,-1.0954,-1.0925,-1.0946,-1.0893,-1.0922,-1.0924,-1.0931,-1.0932,-1.1046,-1.0918,-1.0918,-1.0918,-1.0918,0,-1.1476,-1.1478,-1.1387,-1.1383,-1.1383,-1.1313,-1.1316,-1.1277,-1.1233,-1.1221,-1.1155,-1.1145,-1.1066,-1.1047,-1.1001,-1.0996,-1.0987,-1.0964,-1.0952,-1.0971,-1.0974,-1.0962,-1.0957,-1.092,-1.092,-1.0919,-1.0919,0,-1.1588,-1.1527,-1.1515,-1.1443,-1.1425,-1.143,-1.1369,-1.1363,-1.1317,-1.1303,-1.1296,-1.1225,-1.12,-1.1138,-1.1096,-1.1065,-1.1074,-1.105,-1.1091,-1.1083,-1.1117,-1.1116,-1.1228,-1.1241,-1.1104,-1.1105,-1.1106,0,-1.1642,-1.1642,-1.1572,-1.1559,-1.153,-1.151,-1.149,-1.1421,-1.1404,-1.135,-1.1351,-1.1321,-1.1293,-1.1257,-1.1203,-1.1171,-1.1148,-1.1189,-1.1143,-1.1163,-1.1152,-1.1153,-1.1154,-1.1201,-1.1202,-1.1204,-1.1205,0,-1.1747,-1.1717,-1.1691,-1.1656,-1.1634,-1.1603,-1.1568,-1.1561,-1.1484,-1.1468,-1.1442,-1.1421,-1.1379,-1.1351,-1.1311,-1.1279,-1.1231,-1.122,-1.1226,-1.1246,-1.1271,-1.1261,-1.1121,-1.1218,-1.1217,-1.1216,-1.1215,-1.1215,-1.1833,-1.1831,-1.1781,-1.1755,-1.1722,-1.1691,-1.1683,-1.1637,-1.1614,-1.1575,-1.1535,-1.1514,-1.1468,-1.1409,-1.1381,-1.1364,-1.1339,-1.1346,-1.1348,-1.1352,-1.1361,-1.1272,-1.1356,-1.1356,-1.1355,-1.1355,-1.1355,0,-1.1936,-1.1901,-1.1878,-1.1831,-1.1812,-1.1767,-1.1726,-1.1713,-1.1695,-1.1656,-1.163,-1.1602,-1.1574,-1.1518,-1.1486,-1.1484,-1.1461,-1.1478,-1.1479,-1.1473,-1.1385,-1.1384,-1.1498,-1.1498,-1.1498,-1.1497,-1.1497,-1.1497,-1.1988,-1.1982,-1.1947,-1.1924,-1.1889,-1.1868,-1.1849,-1.1821,-1.1789,-1.176,-1.1737,-1.1701,-1.1655,-1.162,-1.1594,-1.1578,-1.157,-1.1595,-1.1573,-1.1492,-1.1479,-1.1466,-1.1465,-1.1594,-1.1594,-1.1663,-1.1663,-1.1664]},{"header":{"parameterUnit":"m.s-1","parameterCategory":1,"la1":30.2991,"la2":30.254,"lo1":-89.0895,"lo2":-89.0444,"dy":0.0017,"dx":0.0017,"nx":28,"ny":28,"refTime":"2025-08-26T03:00:00:Z","depth":0,"parameterNumber":3,"parameterNumberName":"V-component_of_WINDS"},"data":[0,0,0,0,0,0,0,0,0,0,0,0,0,0,0,0,0,0,0,0,0,0,0,0,0,0,0,0,0,0,0,0,0,0,0,0,0,0,0,0,0,0,0,0,0,0,0,0,0,0,0,0,0,0,0,0,0,0,1.4962,1.4961,0,1.4907,1.4907,1.4906,1.4824,1.4822,1.4821,1.482,1.4764,1.4764,1.4764,0,0,0,0,0,0,0,0,0,0,0,0,0,1.4995,1.4995,1.4962,1.4961,1.4961,1.4907,1.4906,1.4906,1.4824,1.4822,1.4821,1.4819,1.4764,1.4764,1.4764,0,0,0,0,0,0,0,0,0,0,0,0,0,1.4965,1.4995,1.4962,1.4913,1.4908,1.4907,1.4906,1.4906,1.4824,1.4822,1.482,1.4818,1.4764,1.4764,1.4764,1.4806,0,0,1.4763,1.4763,0,0,0,0,0,0,0,0,1.4967,1.4964,1.4921,1.4917,1.4911,1.487,1.4898,1.4872,1.4825,1.4856,1.482,1.4817,1.4801,1.4798,1.4792,1.4804,1.4801,1.4763,1.4763,1.4763,1.4763,0,0,0,0,0,0,0,1.4969,1.4966,1.494,1.4921,1.4915,1.4894,1.4887,1.4893,1.4842,1.4853,1.4847,1.4842,1.4798,1.4793,1.479,1.48,1.4763,1.4763,1.4763,1.4763,1.484,1.4842,0,0,0,0,0,0,1.4978,1.4968,1.4942,1.4939,1.4934,1.4895,1.4888,1.4885,1.4841,1.4833,1.4844,1.4838,1.4794,1.4791,1.4788,1.4831,1.4763,1.4763,1.4763,1.4838,1.4841,1.4843,0,0,0,0,0,0,1.4979,1.4977,1.4944,1.4952,1.4946,1.4897,1.4895,1.4886,1.488,1.4834,1.4825,1.4848,1.4792,1.4788,1.4801,1.4828,1.4763,1.4763,1.4836,1.4839,1.4842,1.492,0,0,0,0,0,0,1.4981,1.4978,1.4993,1.4953,1.4946,1.4959,1.4897,1.4886,1.488,1.4872,1.4835,1.4827,1.479,1.4802,1.4801,1.4827,1.4763,1.4833,1.4837,1.4841,1.4915,1.4926,1.4935,0,0,0,0,0,1.4982,1.5018,1.4994,1.4992,1.4964,1.496,1.4956,1.4913,1.4883,1.4897,1.4867,1.4828,1.4827,1.4804,1.4803,1.4828,1.4831,1.4836,1.4841,1.491,1.4923,1.4935,0,0,0,0,0,0,1.5063,1.5012,1.4985,1.5009,1.499,1.4946,1.4963,1.4929,1.4918,1.4911,1.4859,1.4851,1.487,1.4851,1.4827,1.4866,1.4823,1.4827,1.4876,1.4888,1.4898,1.49,1.4762,0,0,0,0,0,1.5084,1.5085,1.5041,1.5066,1.5058,1.5013,1.501,1.4978,1.4956,1.4947,1.4918,1.4899,1.4893,1.489,1.4883,1.4913,1.4902,1.493,1.494,1.4949,1.4952,1.4963,1.4974,1.4859,1.4859,1.4859,0,0,1.5127,1.5099,1.5103,1.5082,1.5063,1.5064,1.5006,1.5011,1.5011,1.4948,1.4956,1.4936,1.491,1.4931,1.4938,1.4915,1.4982,1.4955,1.4962,1.496,1.4969,1.498,1.499,1.4862,1.4862,1.4861,0,0,1.5204,1.5185,1.5202,1.5184,1.5156,1.5126,1.5131,1.5093,1.5076,1.5085,1.5036,1.5036,1.5029,1.5011,1.5002,1.5073,1.5035,1.5073,1.5123,1.5134,1.5143,1.5151,1.5172,1.5181,1.5077,1.5077,1.5077,0,1.526,1.526,1.5215,1.5222,1.5213,1.5157,1.5172,1.5158,1.513,1.5124,1.51,1.5088,1.5067,1.5081,1.5098,1.5094,1.5095,1.5074,1.5146,1.5153,1.5159,1.5179,1.5187,1.5081,1.5081,1.5081,1.508,0,1.5328,1.5329,1.5347,1.5319,1.5313,1.5325,1.5281,1.5281,1.525,1.5223,1.5231,1.5204,1.5189,1.5191,1.5162,1.5201,1.5187,1.5155,1.511,1.5175,1.5192,1.52,1.5088,1.5086,1.5085,1.5084,0,0,1.5451,1.54,1.5406,1.5392,1.5358,1.5357,1.5367,1.5351,1.535,1.5334,1.5337,1.5333,1.5302,1.5292,1.5261,1.5271,1.5324,1.5237,1.5236,1.525,1.536,1.5381,1.539,1.5301,1.5302,1.5303,1.5361,0,1.5518,1.5529,1.5489,1.5511,1.5509,1.5456,1.5464,1.5443,1.5419,1.5414,1.5387,1.5382,1.5345,1.5337,1.5346,1.5316,1.5345,1.5312,1.5301,1.5302,1.5305,1.54,1.5422,1.5478,1.5368,1.5369,1.537,0,1.5596,1.5582,1.5603,1.5565,1.5563,1.5571,1.5552,1.555,1.5525,1.5506,1.5494,1.5458,1.5463,1.5424,1.5428,1.5407,1.5401,1.5386,1.5387,1.5381,1.5336,1.5392,1.5495,1.5502,1.5381,1.538,1.5379,0,1.5678,1.5665,1.5675,1.5665,1.5623,1.5629,1.5612,1.5585,1.5578,1.5563,1.5557,1.5544,1.5535,1.5525,1.5486,1.5461,1.5494,1.5452,1.5476,1.5477,1.5481,1.5481,1.558,1.5486,1.5486,1.5486,1.5485,0,1.5753,1.5767,1.571,1.5716,1.573,1.5685,1.5699,1.5677,1.5654,1.5653,1.5609,1.5609,1.556,1.5555,1.5525,1.5531,1.5529,1.5512,1.5503,1.5513,1.5515,1.5505,1.5498,1.5488,1.5487,1.5487,1.5486,0,1.5845,1.5808,1.5815,1.5775,1.5765,1.5777,1.5742,1.5745,1.5718,1.5718,1.5715,1.5673,1.5664,1.5625,1.5608,1.5588,1.5603,1.5588,1.561,1.5604,1.5628,1.5625,1.5721,1.573,1.5634,1.5635,1.5636,0,1.5893,1.5902,1.5863,1.5859,1.5844,1.584,1.5832,1.5789,1.5782,1.5755,1.5761,1.5749,1.5736,1.5725,1.5692,1.5678,1.566,1.5695,1.5657,1.5666,1.5655,1.5653,1.5652,1.5701,1.5702,1.5704,1.5704,0,1.5981,1.5962,1.5953,1.5937,1.5929,1.5914,1.5897,1.5897,1.5849,1.5844,1.5834,1.5825,1.5807,1.5794,1.5775,1.5756,1.5721,1.5717,1.5721,1.5729,1.574,1.573,1.5627,1.5714,1.5713,1.5712,1.5712,1.5711,1.6049,1.6053,1.6026,1.6016,1.5999,1.5984,1.5984,1.5957,1.5949,1.593,1.5906,1.5899,1.5873,1.5843,1.5827,1.5821,1.5801,1.5808,1.5809,1.581,1.5814,1.5745,1.5818,1.5817,1.5817,1.5817,1.5816,0,1.613,1.611,1.6102,1.6079,1.6072,1.6042,1.6021,1.6016,1.601,1.599,1.5978,1.5966,1.5954,1.5921,1.5905,1.5906,1.5889,1.5903,1.59,1.5895,1.5834,1.583,1.5916,1.5916,1.5916,1.5916,1.5916,1.5916,1.6171,1.6176,1.6154,1.615,1.613,1.6122,1.6113,1.6098,1.6081,1.607,1.6059,1.6038,1.6011,1.5993,1.598,1.597,1.5965,1.5983,1.5967,1.591,1.59,1.5891,1.5886,1.5983,1.5983,1.6028,1.6029,1.6029]}]]